History for Norfolk, VA on Friday, March 27, 2015

Jump to data by:

Latest visited Airport Codes: KORF

Data type:
 

« Previous Day | Next Day »

 
Daily Summary
Actual Average Record
Temperature
Mean Temperature 53 °F 52 °F  
Max Temperature 64 °F 62 °F 86 °F (2007)
Min Temperature 42 °F 43 °F 23 °F (1955)
Degree Days
Heating Degree Days 12 13  
Month to date heating degree days 445  
Since 1 July heating degree days 3014  
Cooling Degree Days 0 0  
Month to date cooling degree days 0  
Year to date cooling degree days 1  
Growing Degree Days 3 (Base 50)    
Moisture
Dew Point 42 °F    
Average Humidity 84    
Maximum Humidity 89    
Minimum Humidity 75    
Precipitation
Precipitation 0.08 in 0.12 in 2.03 in (1891)
Month to date precipitation 3.21  
Year to date precipitation 9.73  
Snow
Snow - 0.00 in 2.50 in (1947)
Month to date snowfall 0.2  
Since 1 July snowfall 5.8  
Snow Depth -    
Sea Level Pressure
Sea Level Pressure 29.74 in    
Wind
Wind Speed 15 mph ()    
Max Wind Speed 21 mph    
Max Gust Speed 33 mph    
Visibility 9.0 miles    
Events Rain   
Key: T is trace of precipitation, MM is missing value
Source: Averaged Metar Reports
Time (EDT) Temp. Dew Point Humidity Sea Level Pressure Visibility Wind Direction Wind Speed Gust Speed Precip. Events Conditions
12:51 AM 64.0 °F 57.0 °F 78% 29.70 in 10.0 miles SSW 15.0 mph - N/A   Clear
1:51 AM 64.0 °F 55.9 °F 75% 29.70 in 10.0 miles SSW 15.0 mph - N/A   Mostly Cloudy
2:51 AM 63.0 °F 55.0 °F 75% 29.67 in 10.0 miles SSW 13.8 mph - N/A   Mostly Cloudy
3:51 AM 63.0 °F 55.0 °F 75% 29.65 in 10.0 miles SW 13.8 mph - N/A   Mostly Cloudy
4:48 AM 50.0 °F 44.6 °F 82% 29.68 in 10.0 miles North 11.5 mph 21.9 mph 0.00 in   Overcast
4:51 AM 50.0 °F 44.1 °F 80% 29.69 in 10.0 miles North 16.1 mph 24.2 mph 0.00 in   Overcast
5:34 AM 48.9 °F 42.1 °F 77% 29.68 in 10.0 miles North 19.6 mph 28.8 mph N/A   Overcast
5:51 AM 48.9 °F 42.1 °F 77% 29.70 in 10.0 miles North 19.6 mph 28.8 mph N/A   Overcast
6:18 AM 48.0 °F 42.1 °F 80% 29.71 in 10.0 miles North 17.3 mph 27.6 mph 0.00 in Rain Light Rain
6:51 AM 46.9 °F 41.0 °F 80% 29.73 in 10.0 miles North 18.4 mph 29.9 mph 0.00 in   Overcast
7:49 AM 46.4 °F 42.8 °F 87% 29.75 in 10.0 miles North 18.4 mph 28.8 mph 0.00 in Rain Light Rain
7:51 AM 46.0 °F 42.1 °F 86% 29.75 in 10.0 miles North 20.7 mph 28.8 mph 0.00 in   Overcast
8:08 AM 46.0 °F 42.1 °F 86% 29.75 in 10.0 miles North 18.4 mph 33.4 mph N/A   Overcast
8:19 AM 46.0 °F 42.1 °F 86% 29.75 in 10.0 miles North 18.4 mph 26.5 mph N/A   Overcast
8:29 AM 46.0 °F 42.1 °F 86% 29.75 in 10.0 miles North 18.4 mph 28.8 mph N/A   Overcast
8:51 AM 45.0 °F 41.0 °F 86% 29.75 in 10.0 miles North 18.4 mph 26.5 mph N/A   Overcast
9:51 AM 45.0 °F 39.9 °F 82% 29.76 in 10.0 miles North 18.4 mph 25.3 mph N/A   Overcast
10:51 AM 44.1 °F 39.9 °F 85% 29.75 in 10.0 miles North 18.4 mph 24.2 mph N/A   Overcast
11:51 AM 44.1 °F 39.9 °F 85% 29.75 in 8.0 miles North 16.1 mph - N/A   Overcast
12:18 PM 44.6 °F 39.2 °F 81% 29.76 in 9.0 miles North 17.3 mph 27.6 mph N/A   Overcast
12:51 PM 43.0 °F 39.0 °F 86% 29.78 in 2.5 miles North 18.4 mph 24.2 mph 0.00 in Rain Light Rain
1:34 PM 43.0 °F 39.9 °F 89% 29.79 in 3.0 miles North 17.3 mph 26.5 mph 0.02 in Rain Light Rain
1:51 PM 43.0 °F 39.9 °F 89% 29.78 in 5.0 miles North 15.0 mph - 0.04 in Rain Light Rain
2:18 PM 42.1 °F 39.0 °F 89% 29.77 in 7.0 miles North 18.4 mph 26.5 mph 0.02 in Rain Light Rain
2:29 PM 42.1 °F 39.0 °F 89% 29.78 in 10.0 miles North 13.8 mph 28.8 mph 0.03 in Rain Light Rain
2:51 PM 42.1 °F 37.9 °F 85% 29.78 in 10.0 miles North 18.4 mph 24.2 mph 0.03 in   Overcast
3:07 PM 42.1 °F 39.0 °F 89% 29.76 in 5.0 miles North 12.7 mph 23.0 mph 0.00 in Rain Rain
3:26 PM 42.1 °F 39.0 °F 89% 29.76 in 10.0 miles North 13.8 mph - 0.01 in   Overcast
3:35 PM 42.1 °F 39.0 °F 89% 29.76 in 10.0 miles North 12.7 mph 21.9 mph 0.01 in   Overcast
3:49 PM 42.8 °F 39.2 °F 87% 29.74 in 10.0 miles NNE 17.3 mph - 0.01 in   Overcast
3:51 PM 42.1 °F 39.0 °F 89% 29.74 in 10.0 miles North 15.0 mph 24.2 mph 0.01 in   Overcast
4:04 PM 42.1 °F 37.9 °F 85% 29.73 in 10.0 miles NNE 17.3 mph 23.0 mph N/A   Overcast

Powered by the Weather Underground, Inc.